User: anonymous   Login
Location: Unspecified
(0.0000°N, 0.0000°E)
Time: 12:51:49
(UTC+00:00)
Language:

SAR-Lupe-2 - Orbit

View from above orbital plane
View from above orbital plane
View from above satellite
View from above satellite

Ground track
Ground track

The orbit data is extracted from the following two-line orbital elements,

1 31797U 07030A   17229.96254666 0.00001100  00000-0  41151-4 0    03
2 31797  98.1508 345.3974 0003491 318.8635  41.1363 15.27346757    01
Epoch (UTC): 17 August 2017 23:06:04
Eccentricity: 0.0003491
inclination: 98.1508°
perigee height: 481 km
apogee height: 486 km
right ascension of ascending node: 345.3974°
argument of perigee: 318.8635°
revolutions per day: 15.27346757
mean anomaly at epoch: 41.1363°
orbit number at epoch: 0

The dashed part of the orbit path shows where the satellite is in the earth's shadow,  

DLR